Location: Aiyekoto
(8.4333°N, 4.3667°E)
Time: 23:20:46
(UTC+00:00)

NOSS 3-3 (A) - Pass Details

Date: 07 June 2020
Orbit: 831 x 1382 km, 63.4° (Epoch: 06 July)

Event Time Altitude Azimuth Distance (km) Brightness Sun altitude
Exits shadow 03:16:15 40° 334° (NNW) 1,210 4.5 -28.9°
Drops below altitude 10° 03:20:26 10° 9° (N) 2,512 6.6 -28.0°
Sets 03:23:05 0° 15° (NNE) 3,504 7.6 -27.5°
